EW3708 Weather Reports


time (UTC)temp
F
wind
direction
speed
knots
gust
knots
rain 1hr
in
rain 24hr
in
rain mn
in
humidity
%
barometer
mb
20260505041546 58 138 2.6 7.8 0.00 0.00 0.00 53 1008.4
20260505040044 59 139 1.7 7.0 0.00 0.00 0.00 53 1008.5
20260505034542 59 140 4.3 7.8 0.00 0.00 0.00 52 1008.4
20260505033104 59 133 3.5 12.2 0.00 0.00 0.00 51 1008.4
20260505031541 59 141 3.5 8.7 0.00 0.00 0.00 51 1008.5
20260505030043 60 155 5.2 9.6 0.00 0.00 0.00 51 1008.7
20260505024540 60 139 4.3 10.4 0.00 0.00 0.00 50 1008.8
20260505023048 60 143 5.2 8.7 0.00 0.00 0.00 50 1008.9
20260505021540 60 158 3.5 11.3 0.00 0.00 0.00 50 1008.9
20260505020045 60 156 3.5 9.6 0.00 0.00 0.00 50 1008.9
20260505014540 60 180 3.5 7.8 0.00 0.00 0.00 50 1008.8
20260505013038 61 148 3.5 9.6 0.00 0.00 0.00 49 1008.8
20260505011537 61 164 2.6 8.7 0.00 0.00 0.00 49 1008.8
20260505010041 62 148 2.6 8.7 0.00 0.00 0.00 48 1008.6
20260505004545 62 156 4.3 9.6 0.00 0.00 0.00 47 1008.5
20260505003038 63 154 3.5 7.0 0.00 0.00 0.00 46 1008.4
20260505001535 63 134 2.6 7.0 0.00 0.00 0.00 45 1008.3
20260505000037 64 136 2.6 7.0 0.00 0.00 0.00 44 1008.1
20260504234553 64 130 4.3 7.8 0.00 0.00 0.00 43 1008.0
20260504233035 65 179 2.6 7.8 0.00 0.00 0.00 43 1008.0
20260504231545 65 152 1.7 9.6 0.00 0.00 0.00 42 1007.8
20260504230034 66 165 3.5 10.4 0.00 0.00 0.00 40 1007.7
20260504224532 67 151 4.3 11.3 0.00 0.00 0.00 39 1007.6
20260504223031 67 158 4.3 8.7 0.00 0.00 0.00 38 1007.5
20260504221530 68 136 3.5 10.4 0.00 0.00 0.00 37 1007.7
20260504220028 69 210 2.6 12.2 0.00 0.00 0.00 36 1007.7
20260504214535 69 230 5.2 13.9 0.00 0.00 0.00 35 1007.8
20260504213029 69 213 4.3 12.2 0.00 0.00 0.00 35 1007.8
20260504211525 69 251 3.5 7.8 0.00 0.00 0.00 35 1008.0
20260504210023 68 227 2.6 11.3 0.00 0.00 0.00 35 1008.0
20260504204549 68 115 4.3 8.7 0.00 0.00 0.00 36 1008.2
20260504203019 68 213 2.6 9.6 0.00 0.00 0.00 35 1008.4
20260504201517 68 159 4.3 10.4 0.00 0.00 0.00 36 1008.5
20260504200016 69 211 1.7 11.3 0.00 0.00 0.00 33 1008.6
20260504194513 69 147 5.2 10.4 0.00 0.00 0.00 34 1008.7
20260504193020 68 155 3.5 9.6 0.00 0.00 0.00 34 1008.9
20260504191510 67 182 6.1 12.2 0.00 0.00 0.00 36 1009.2
20260504190010 68 222 5.2 10.4 0.00 0.00 0.00 35 1009.2
20260504184506 69 165 4.3 10.4 0.00 0.00 0.00 34 1009.6
20260504183005 69 234 3.5 11.3 0.00 0.00 0.00 33 1009.5
20260504181504 68 201 3.5 12.2 0.00 0.00 0.00 35 1009.6
20260504180003 69 192 5.2 13.0 0.00 0.00 0.00 33 1009.7
20260504174501 68 134 6.1 13.9 0.00 0.00 0.00 34 1010.0
20260504173018 69 132 4.3 10.4 0.00 0.00 0.00 32 1009.9
20260504171541 67 168 2.6 6.1 0.00 0.00 0.00 34 1010.1
20260504081504 38 242 0.0 0.0 0.00 0.00 0.00 76 1013.0